User: anonymous   Login
Location: Caltech
(34.1382°N, 118.1253°W)
Time: 01:30:04
(UTC-08:00)
Language:

NOSS 3-1 (C) - Orbit

View from above orbital plane
View from above orbital plane
View from above satellite
View from above satellite

Ground track
Ground track

The orbit data is extracted from the following two-line orbital elements,

1 26907U 01040C   18049.09276078 0.00000010  00000-0  11400-4 0    04
2 26907  63.4098 120.1942 0393000 359.3976   0.6024 13.41278004    04
Epoch (UTC): 18 February 2018 02:13:34
Eccentricity: 0.0393000
inclination: 63.4098°
perigee height: 810 km
apogee height: 1398 km
right ascension of ascending node: 120.1942°
argument of perigee: 359.3976°
revolutions per day: 13.41278004
mean anomaly at epoch: 0.6024°
orbit number at epoch: 0

The dashed part of the orbit path shows where the satellite is in the earth's shadow,  

DLR